STARLINK-32226 (60426 NORAD) Tracking and Keplerian Element Data

This shows tracking and keplerian element data for the satellite.

Feedback or suggestion? Click here.




ElementValue
Catalog60426
NameSTARLINK-32226
Epoch Orbit1078
Epoch Day286.82530155
Epoch Year2024
RAAN79.5944
Inclination53.1624
Eccentricity0.0001334
Argument of Perigee72.0473
Mean Anonmoly288.0673
Mean Motion15.3025365
Decay Rate6.11E-05
L11 60426U 24144B 24286.82530155 .00006110 00000+0 21788-3 0 9990
L22 60426 53.1624 79.5944 0001334 72.0473 288.0673 15.30253650 10783



Live tracking and technical data element details for STARLINK-32226 (NORAD 60426). STARLINK-32226 can be tracked NOW for your location showing map with azimuth and elevation plus other details from your city location.







IsCatalogInMostPopularTable: catalog: 60426, numindb: 8
Update: records affected: 1



GetName: 60426 STARLINK-32226

Hit Count: updated at: Wed, 04 Dec 2024 18:10:39 GMT